QPF
0.01 0.01 0.01 0.00 0.00 0.00 0.00 0.00 0.00 0.00 0.00 0.00 0.00 0.00 0.00 0.00 0.00 0.00 0.00 0.00 0.00 0.00 0.00 0.01 0.01 0.00 0.00 0.00 0.01 0.04 0.07 0.05 0.05 0.06 0.07 0.07 0.07 0.06 0.04 0.03 0.03 0.04 0.04 0.04
0.01 0.01 0.00 0.00 0.00 0.00 0.00 0.00 0.00 0.00 0.00 0.00 0.00 0.00 0.00 0.00 0.01 0.01 0.01 0.01 0.01 0.02 0.02 0.01 0.01 0.01 0.00 0.01 0.01 0.03 0.08 0.07 0.05 0.05 0.06 0.05 0.05 0.06 0.05 0.04 0.03 0.04 0.05 0.06
0.01 0.00 0.00 0.01 0.01 0.01 0.01 0.00 0.00 0.00 0.00 0.00 0.00 0.00 0.00 0.01 0.01 0.01 0.01 0.01 0.02 0.03 0.02 0.01 0.01 0.01 0.01 0.01 0.01 0.02 0.07 0.10 0.06 0.05 0.06 0.06 0.05 0.04 0.03 0.03 0.02 0.03 0.04 0.05
0.01 0.00 0.00 0.01 0.01 0.01 0.01 0.00 0.01 0.01 0.01 0.00 0.00 0.00 0.00 0.00 0.01 0.01 0.01 0.02 0.03 0.02 0.01 0.01 0.01 0.01 0.01 0.01 0.01 0.02 0.05 0.09 0.07 0.05 0.06 0.06 0.05 0.03 0.01 0.01 0.02 0.01 0.02 0.03
0.01 0.00 0.00 0.01 0.01 0.01 0.01 0.00 0.01 0.01 0.01 0.01 0.00 0.01 0.00 0.00 0.00 0.01 0.02 0.03 0.03 0.02 0.01 0.01 0.01 0.01 0.01 0.01 0.01 0.02 0.04 0.06 0.07 0.05 0.05 0.06 0.05 0.03 0.02 0.01 0.01 0.02 0.02 0.03
0.01 0.01 0.01 0.00 0.00 0.01 0.01 0.01 0.01 0.01 0.03 0.04 0.01 0.00 0.00 0.00 0.00 0.01 0.01 0.02 0.01 0.01 0.01 0.01 0.01 0.01 0.01 0.01 0.01 0.02 0.02 0.04 0.05 0.05 0.04 0.04 0.04 0.03 0.02 0.02 0.01 0.02 0.03 0.03
0.02 0.01 0.01 0.01 0.01 0.01 0.01 0.03 0.05 0.04 0.04 0.02 0.00 0.00 0.00 0.00 0.00 0.00 0.00 0.00 0.01 0.01 0.01 0.01 0.01 0.00 0.01 0.01 0.02 0.02 0.02 0.03 0.04 0.04 0.04 0.04 0.04 0.03 0.02 0.02 0.01 0.02 0.03 0.04
0.03 0.02 0.02 0.02 0.02 0.02 0.02 0.03 0.03 0.02 0.01 0.00 0.00 0.00 0.00 0.00 0.00 0.00 0.00 0.00 0.00 0.00 0.01 0.01 0.01 0.01 0.01 0.01 0.01 0.01 0.01 0.02 0.03 0.03 0.03 0.04 0.04 0.03 0.02 0.02 0.01 0.02 0.03 0.04
0.04 0.02 0.01 0.01 0.02 0.02 0.02 0.03 0.02 0.03 0.01 0.01 0.00 0.00 0.00 0.00 0.00 0.00 0.00 0.00 0.00 0.00 0.00 0.00 0.00 0.00 0.00 0.00 0.01 0.01 0.01 0.02 0.03 0.03 0.03 0.04 0.04 0.03 0.02 0.02 0.01 0.02 0.03 0.04
0.03 0.02 0.01 0.01 0.01 0.02 0.02 0.02 0.03 0.04 0.03 0.01 0.00 0.00 0.00 0.00 0.00 0.00 0.00 0.00 0.00 0.00 0.00 0.00 0.00 0.00 0.00 0.00 0.00 0.01 0.01 0.01 0.02 0.03 0.03 0.03 0.03 0.03 0.02 0.02 0.01 0.02 0.02 0.03
0.03 0.03 0.01 0.01 0.03 0.02 0.02 0.03 0.04 0.04 0.02 0.01 0.01 0.01 0.01 0.00 0.00 0.00 0.00 0.00 0.00 0.00 0.00 0.00 0.00 0.00 0.00 0.00 0.00 0.00 0.00 0.00 0.01 0.01 0.02 0.02 0.02 0.03 0.03 0.02 0.01 0.01 0.01 0.02
0.02 0.03 0.02 0.01 0.01 0.02 0.03 0.04 0.04 0.05 0.04 0.01 0.01 0.01 0.00 0.00 0.00 0.00 0.00 0.00 0.00 0.00 0.00 0.00 0.00 0.00 0.00 0.00 0.00 0.00 0.00 0.01 0.01 0.01 0.01 0.02 0.02 0.02 0.03 0.02 0.01 0.01 0.01 0.01
0.03 0.04 0.03 0.03 0.03 0.04 0.04 0.04 0.05 0.05 0.04 0.03 0.01 0.01 0.00 0.00 0.01 0.01 0.00 0.01 0.01 0.01 0.00 0.00 0.00 0.00 0.00 0.00 0.00 0.00 0.00 0.01 0.01 0.01 0.01 0.02 0.02 0.02 0.02 0.02 0.02 0.01 0.01 0.01
0.04 0.05 0.03 0.03 0.04 0.05 0.04 0.03 0.03 0.05 0.06 0.04 0.02 0.01 0.00 0.00 0.00 0.00 0.00 0.00 0.01 0.01 0.01 0.01 0.01 0.01 0.01 0.00 0.00 0.00 0.01 0.01 0.01 0.01 0.02 0.02 0.02 0.03 0.03 0.03 0.03 0.02 0.02 0.01
0.02 0.03 0.01 0.01 0.01 0.02 0.03 0.02 0.02 0.02 0.02 0.02 0.01 0.01 0.00 0.00 0.00 0.00 0.01 0.01 0.00 0.01 0.01 0.01 0.01 0.01 0.01 0.01 0.01 0.01 0.01 0.02 0.02 0.02 0.02 0.02 0.02 0.03 0.04 0.04 0.05 0.05 0.04 0.03
0.02 0.02 0.01 0.01 0.00 0.00 0.01 0.02 0.01 0.01 0.01 0.01 0.01 0.01 0.00 0.00 0.00 0.00 0.01 0.01 0.01 0.01 0.01 0.01 0.01 0.01 0.02 0.02 0.02 0.02 0.02 0.02 0.02 0.03 0.03 0.03 0.03 0.03 0.03 0.04 0.04 0.05 0.06 0.05
0.02 0.01 0.01 0.01 0.00 0.01 0.02 0.02 0.02 0.02 0.02 0.02 0.01 0.01 0.01 0.00 0.00 0.01 0.01 0.01 0.01 0.02 0.01 0.01 0.01 0.01 0.02 0.03 0.02 0.02 0.02 0.02 0.03 0.03 0.04 0.04 0.04 0.03 0.03 0.03 0.04 0.04 0.04 0.04
0.02 0.02 0.02 0.02 0.01 0.02 0.03 0.02 0.02 0.02 0.03 0.03 0.02 0.01 0.01 0.01 0.01 0.01 0.02 0.01 0.01 0.02 0.02 0.02 0.02 0.01 0.02 0.03 0.02 0.02 0.02 0.02 0.02 0.02 0.03 0.03 0.03 0.04 0.04 0.04 0.04 0.04 0.04 0.04
0.02 0.02 0.03 0.03 0.03 0.02 0.02 0.01 0.02 0.03 0.03 0.03 0.02 0.02 0.02 0.02 0.01 0.02 0.02 0.01 0.01 0.01 0.01 0.02 0.02 0.01 0.01 0.02 0.02 0.02 0.02 0.02 0.02 0.02 0.02 0.01 0.01 0.02 0.03 0.04 0.05 0.04 0.05 0.05
0.02 0.02 0.04 0.04 0.05 0.03 0.02 0.01 0.02 0.03 0.03 0.03 0.03 0.02 0.02 0.02 0.02 0.02 0.02 0.02 0.02 0.01 0.01 0.01 0.01 0.01 0.01 0.02 0.02 0.02 0.02 0.02 0.02 0.02 0.01 0.01 0.01 0.01 0.02 0.03 0.03 0.03 0.04 0.04
0.02 0.03 0.04 0.04 0.05 0.03 0.02 0.01 0.01 0.03 0.04 0.03 0.03 0.03 0.02 0.02 0.03 0.02 0.02 0.01 0.01 0.01 0.01 0.01 0.01 0.01 0.01 0.01 0.01 0.01 0.01 0.02 0.01 0.01 0.01 0.01 0.01 0.01 0.01 0.02 0.02 0.02 0.02 0.03
0.03 0.03 0.04 0.03 0.04 0.04 0.02 0.01 0.04 0.06 0.04 0.03 0.02 0.02 0.02 0.02 0.02 0.02 0.01 0.01 0.01 0.01 0.01 0.01 0.02 0.02 0.01 0.01 0.01 0.01 0.01 0.01 0.01 0.01 0.02 0.02 0.02 0.02 0.02 0.02 0.03 0.02 0.02 0.02
0.06 0.06 0.06 0.05 0.05 0.05 0.04 0.04 0.04 0.03 0.03 0.03 0.03 0.02 0.02 0.02 0.02 0.02 0.02 0.02 0.01 0.01 0.01 0.01 0.01 0.02 0.02 0.02 0.01 0.01 0.01 0.02 0.01 0.01 0.02 0.02 0.02 0.02 0.02 0.02 0.03 0.03 0.03 0.03
0.04 0.04 0.04 0.05 0.04 0.03 0.03 0.02 0.02 0.02 0.03 0.03 0.03 0.03 0.03 0.03 0.02 0.02 0.03 0.03 0.03 0.02 0.01 0.01 0.01 0.02 0.03 0.03 0.03 0.02 0.02 0.03 0.02 0.02 0.02 0.02 0.02 0.02 0.03 0.03 0.03 0.03 0.02 0.03
0.04 0.03 0.03 0.04 0.04 0.03 0.02 0.02 0.02 0.02 0.02 0.02 0.03 0.03 0.03 0.03 0.03 0.03 0.03 0.03 0.03 0.03 0.02 0.02 0.02 0.02 0.02 0.03 0.03 0.03 0.03 0.03 0.03 0.02 0.02 0.02 0.02 0.02 0.02 0.02 0.02 0.02 0.02 0.02
0.04 0.05 0.05 0.05 0.05 0.04 0.03 0.02 0.02 0.02 0.02 0.02 0.02 0.02 0.03 0.03 0.03 0.03 0.03 0.03 0.03 0.03 0.03 0.03 0.02 0.02 0.02 0.03 0.03 0.03 0.03 0.03 0.03 0.03 0.02 0.02 0.02 0.03 0.03 0.03 0.02 0.02 0.02 0.02
MSLP
1016.45 1016.54 1016.50 1016.39 1016.26 1016.18 1016.16 1016.19 1016.26 1016.31 1016.28 1016.14 1015.88 1015.51 1015.09 1014.68 1014.33 1014.11 1014.03 1014.07 1014.20 1014.37 1014.49 1014.51 1014.41 1014.19 1013.87 1013.50 1013.14 1012.85 1012.66 1012.59 1012.60 1012.69 1012.79 1012.88 1012.92 1012.90 1012.84 1012.75 1012.67 1012.62 1012.64 1012.73
1016.46 1016.46 1016.34 1016.18 1016.04 1015.98 1016.02 1016.13 1016.28 1016.39 1016.40 1016.26 1015.96 1015.52 1015.00 1014.48 1014.04 1013.75 1013.64 1013.69 1013.87 1014.10 1014.31 1014.42 1014.40 1014.23 1013.94 1013.59 1013.22 1012.90 1012.68 1012.57 1012.56 1012.62 1012.72 1012.80 1012.85 1012.85 1012.80 1012.73 1012.67 1012.64 1012.66 1012.76
1016.23 1016.16 1016.00 1015.83 1015.73 1015.74 1015.88 1016.11 1016.37 1016.56 1016.61 1016.46 1016.10 1015.56 1014.92 1014.27 1013.72 1013.35 1013.19 1013.24 1013.46 1013.76 1014.06 1014.26 1014.32 1014.22 1013.97 1013.63 1013.25 1012.91 1012.65 1012.50 1012.46 1012.49 1012.56 1012.64 1012.68 1012.67 1012.63 1012.57 1012.52 1012.50 1012.54 1012.65
1015.73 1015.61 1015.44 1015.31 1015.29 1015.43 1015.71 1016.10 1016.48 1016.76 1016.85 1016.68 1016.25 1015.60 1014.82 1014.04 1013.37 1012.90 1012.70 1012.74 1012.99 1013.36 1013.74 1014.03 1014.17 1014.13 1013.93 1013.60 1013.22 1012.86 1012.57 1012.38 1012.29 1012.28 1012.32 1012.37 1012.40 1012.39 1012.34 1012.29 1012.25 1012.25 1012.30 1012.43
1015.02 1014.87 1014.71 1014.65 1014.75 1015.04 1015.50 1016.04 1016.57 1016.94 1017.06 1016.87 1016.36 1015.60 1014.69 1013.78 1013.00 1012.45 1012.20 1012.24 1012.52 1012.94 1013.39 1013.77 1013.98 1014.00 1013.84 1013.53 1013.15 1012.76 1012.44 1012.20 1012.07 1012.02 1012.02 1012.04 1012.05 1012.04 1012.00 1011.95 1011.92 1011.94 1012.01 1012.15
1014.18 1014.00 1013.87 1013.89 1014.12 1014.57 1015.20 1015.91 1016.56 1017.01 1017.16 1016.94 1016.37 1015.52 1014.51 1013.49 1012.62 1012.01 1011.73 1011.78 1012.09 1012.57 1013.09 1013.53 1013.81 1013.88 1013.75 1013.46 1013.07 1012.66 1012.30 1012.02 1011.84 1011.76 1011.72 1011.72 1011.72 1011.70 1011.66 1011.63 1011.61 1011.65 1011.74 1011.90
1013.36 1013.14 1013.03 1013.12 1013.47 1014.06 1014.82 1015.65 1016.39 1016.90 1017.07 1016.83 1016.22 1015.31 1014.24 1013.16 1012.26 1011.64 1011.37 1011.44 1011.80 1012.33 1012.91 1013.40 1013.73 1013.84 1013.73 1013.44 1013.04 1012.61 1012.21 1011.89 1011.68 1011.55 1011.49 1011.47 1011.46 1011.44 1011.41 1011.39 1011.40 1011.45 1011.56 1011.75
1012.71 1012.43 1012.32 1012.45 1012.86 1013.53 1014.37 1015.26 1016.05 1016.57 1016.74 1016.49 1015.86 1014.93 1013.86 1012.80 1011.92 1011.34 1011.12 1011.25 1011.66 1012.25 1012.88 1013.42 1013.77 1013.90 1013.80 1013.52 1013.11 1012.65 1012.23 1011.88 1011.62 1011.47 1011.38 1011.34 1011.32 1011.31 1011.29 1011.29 1011.31 1011.39 1011.52 1011.72
1012.36 1012.00 1011.84 1011.96 1012.37 1013.03 1013.88 1014.75 1015.51 1016.01 1016.15 1015.89 1015.27 1014.38 1013.37 1012.39 1011.61 1011.13 1011.00 1011.22 1011.70 1012.34 1013.01 1013.58 1013.96 1014.10 1014.00 1013.71 1013.29 1012.82 1012.37 1012.00 1011.72 1011.53 1011.43 1011.38 1011.35 1011.34 1011.33 1011.34 1011.38 1011.47 1011.62 1011.82
1012.39 1011.93 1011.69 1011.72 1012.05 1012.63 1013.38 1014.15 1014.81 1015.23 1015.32 1015.05 1014.47 1013.66 1012.76 1011.93 1011.30 1010.97 1010.98 1011.30 1011.87 1012.56 1013.26 1013.85 1014.23 1014.38 1014.28 1014.00 1013.58 1013.10 1012.65 1012.26 1011.96 1011.76 1011.64 1011.57 1011.54 1011.52 1011.52 1011.54 1011.59 1011.68 1011.83 1012.03
1012.80 1012.23 1011.87 1011.77 1011.95 1012.35 1012.91 1013.50 1013.99 1014.28 1014.29 1014.01 1013.48 1012.78 1012.04 1011.39 1010.96 1010.81 1010.97 1011.42 1012.07 1012.81 1013.54 1014.13 1014.52 1014.67 1014.59 1014.32 1013.92 1013.46 1013.02 1012.64 1012.34 1012.13 1011.99 1011.91 1011.86 1011.84 1011.83 1011.84 1011.88 1011.97 1012.11 1012.30
1013.50 1012.83 1012.33 1012.06 1012.02 1012.20 1012.50 1012.84 1013.11 1013.23 1013.14 1012.83 1012.35 1011.78 1011.22 1010.78 1010.55 1010.59 1010.91 1011.47 1012.19 1012.97 1013.71 1014.31 1014.71 1014.88 1014.83 1014.60 1014.25 1013.84 1013.44 1013.08 1012.80 1012.59 1012.44 1012.35 1012.28 1012.24 1012.21 1012.21 1012.23 1012.30 1012.43 1012.60
1014.39 1013.61 1012.98 1012.52 1012.24 1012.14 1012.15 1012.20 1012.22 1012.15 1011.94 1011.60 1011.17 1010.72 1010.32 1010.08 1010.04 1010.25 1010.70 1011.35 1012.12 1012.93 1013.68 1014.29 1014.71 1014.92 1014.93 1014.77 1014.50 1014.17 1013.84 1013.54 1013.29 1013.09 1012.94 1012.83 1012.75 1012.68 1012.63 1012.60 1012.61 1012.66 1012.76 1012.91
1015.32 1014.47 1013.71 1013.06 1012.55 1012.16 1011.87 1011.63 1011.39 1011.11 1010.78 1010.40 1010.00 1009.65 1009.39 1009.30 1009.42 1009.76 1010.30 1011.01 1011.81 1012.62 1013.38 1014.00 1014.46 1014.73 1014.83 1014.79 1014.63 1014.42 1014.19 1013.97 1013.77 1013.60 1013.46 1013.34 1013.24 1013.14 1013.07 1013.01 1013.00 1013.02 1013.09 1013.22
1016.19 1015.29 1014.42 1013.60 1012.87 1012.22 1011.66 1011.14 1010.67 1010.20 1009.75 1009.32 1008.93 1008.64 1008.48 1008.50 1008.71 1009.12 1009.71 1010.43 1011.23 1012.04 1012.80 1013.45 1013.96 1014.33 1014.55 1014.64 1014.64 1014.58 1014.47 1014.35 1014.22 1014.10 1013.97 1013.85 1013.73 1013.61 1013.52 1013.44 1013.40 1013.41 1013.46 1013.56
1016.92 1015.99 1015.04 1014.09 1013.18 1012.32 1011.52 1010.78 1010.10 1009.48 1008.92 1008.43 1008.04 1007.77 1007.66 1007.72 1007.97 1008.39 1008.97 1009.67 1010.44 1011.23 1011.99 1012.68 1013.28 1013.75 1014.12 1014.38 1014.55 1014.65 1014.68 1014.68 1014.63 1014.56 1014.46 1014.34 1014.22 1014.09 1013.98 1013.89 1013.84 1013.83 1013.86 1013.93
1017.47 1016.54 1015.53 1014.49 1013.45 1012.44 1011.47 1010.56 1009.74 1009.00 1008.35 1007.81 1007.39 1007.12 1007.00 1007.05 1007.27 1007.65 1008.18 1008.82 1009.54 1010.31 1011.08 1011.82 1012.50 1013.11 1013.63 1014.07 1014.42 1014.68 1014.86 1014.96 1015.00 1014.98 1014.91 1014.81 1014.69 1014.57 1014.46 1014.36 1014.31 1014.28 1014.30 1014.34
1017.82 1016.90 1015.88 1014.79 1013.68 1012.57 1011.51 1010.51 1009.60 1008.79 1008.08 1007.50 1007.04 1006.73 1006.56 1006.56 1006.71 1007.00 1007.45 1008.01 1008.67 1009.41 1010.19 1010.99 1011.77 1012.51 1013.19 1013.79 1014.30 1014.71 1015.02 1015.22 1015.33 1015.36 1015.33 1015.25 1015.14 1015.03 1014.92 1014.84 1014.79 1014.76 1014.76 1014.77
1017.97 1017.07 1016.06 1014.97 1013.85 1012.72 1011.64 1010.62 1009.68 1008.85 1008.12 1007.50 1007.01 1006.64 1006.40 1006.30 1006.35 1006.54 1006.88 1007.36 1007.96 1008.67 1009.47 1010.32 1011.19 1012.05 1012.87 1013.61 1014.26 1014.79 1015.19 1015.47 1015.63 1015.70 1015.69 1015.63 1015.54 1015.45 1015.36 1015.30 1015.25 1015.22 1015.20 1015.19
1017.89 1017.03 1016.06 1015.02 1013.94 1012.86 1011.82 1010.84 1009.93 1009.12 1008.40 1007.77 1007.24 1006.82 1006.50 1006.31 1006.24 1006.33 1006.57 1006.96 1007.51 1008.20 1009.01 1009.92 1010.86 1011.82 1012.74 1013.58 1014.31 1014.92 1015.37 1015.69 1015.88 1015.96 1015.97 1015.93 1015.86 1015.79 1015.73 1015.68 1015.65 1015.62 1015.58 1015.53
1017.57 1016.77 1015.87 1014.90 1013.91 1012.93 1011.99 1011.10 1010.28 1009.53 1008.84 1008.23 1007.68 1007.21 1006.83 1006.55 1006.39 1006.38 1006.53 1006.86 1007.37 1008.05 1008.88 1009.81 1010.81 1011.83 1012.80 1013.69 1014.47 1015.09 1015.56 1015.88 1016.07 1016.15 1016.16 1016.12 1016.07 1016.02 1015.99 1015.96 1015.94 1015.91 1015.85 1015.77
1016.99 1016.26 1015.45 1014.60 1013.74 1012.89 1012.08 1011.33 1010.62 1009.96 1009.35 1008.77 1008.23 1007.74 1007.31 1006.97 1006.75 1006.68 1006.77 1007.06 1007.55 1008.22 1009.05 1010.00 1011.03 1012.06 1013.04 1013.94 1014.70 1015.30 1015.74 1016.03 1016.18 1016.24 1016.24 1016.20 1016.16 1016.13 1016.12 1016.11 1016.09 1016.05 1015.98 1015.86
1016.16 1015.52 1014.83 1014.11 1013.40 1012.71 1012.05 1011.45 1010.88 1010.34 1009.81 1009.30 1008.80 1008.32 1007.88 1007.52 1007.28 1007.17 1007.25 1007.53 1008.00 1008.67 1009.50 1010.45 1011.46 1012.47 1013.42 1014.27 1014.97 1015.51 1015.88 1016.11 1016.21 1016.24 1016.22 1016.17 1016.14 1016.12 1016.11 1016.11 1016.10 1016.05 1015.96 1015.81
1015.14 1014.61 1014.04 1013.46 1012.90 1012.37 1011.88 1011.43 1011.00 1010.58 1010.16 1009.73 1009.30 1008.87 1008.47 1008.14 1007.91 1007.82 1007.92 1008.20 1008.68 1009.35 1010.17 1011.09 1012.05 1013.00 1013.87 1014.63 1015.24 1015.68 1015.97 1016.12 1016.17 1016.15 1016.10 1016.05 1016.01 1015.99 1015.99 1015.99 1015.96 1015.90 1015.79 1015.61
1014.06 1013.64 1013.19 1012.74 1012.32 1011.93 1011.59 1011.28 1010.99 1010.69 1010.39 1010.06 1009.71 1009.36 1009.04 1008.78 1008.61 1008.58 1008.71 1009.03 1009.52 1010.19 1010.97 1011.84 1012.73 1013.59 1014.35 1014.99 1015.48 1015.82 1016.01 1016.08 1016.06 1016.00 1015.93 1015.86 1015.81 1015.78 1015.77 1015.75 1015.71 1015.62 1015.48 1015.28
1013.10 1012.77 1012.42 1012.08 1011.78 1011.51 1011.28 1011.08 1010.90 1010.72 1010.52 1010.30 1010.06 1009.82 1009.60 1009.43 1009.36 1009.41 1009.61 1009.96 1010.48 1011.12 1011.86 1012.65 1013.44 1014.18 1014.81 1015.32 1015.68 1015.90 1016.00 1015.99 1015.92 1015.82 1015.72 1015.63 1015.57 1015.52 1015.49 1015.44 1015.36 1015.24 1015.06 1014.83
Thickness
5564 5560 5564 5571 5570 5572 5568 5567 5569 5574 5580 5578 5579 5587 5597 5600 5598 5600 5602 5603 5605 5610 5614 5612 5612 5611 5610 5609 5608 5608 5608 5608 5607 5606 5605 5604 5603 5604 5605 5607 5609 5611 5612 5614
5550 5555 5569 5565 5561 5560 5558 5557 5560 5565 5570 5570 5570 5577 5586 5592 5595 5597 5599 5600 5601 5604 5605 5606 5605 5605 5604 5604 5604 5604 5604 5603 5603 5602 5600 5599 5598 5598 5599 5600 5602 5604 5606 5607
5546 5557 5560 5556 5552 5551 5552 5552 5555 5555 5559 5560 5560 5572 5580 5586 5589 5591 5594 5596 5598 5599 5599 5600 5599 5599 5599 5599 5599 5600 5599 5599 5598 5596 5594 5592 5591 5591 5591 5593 5594 5596 5598 5600
5536 5546 5547 5546 5546 5545 5547 5553 5550 5547 5543 5540 5548 5549 5573 5575 5580 5585 5587 5587 5589 5591 5593 5594 5593 5593 5594 5594 5594 5594 5594 5593 5592 5590 5588 5588 5587 5586 5587 5587 5588 5589 5592 5593
5527 5534 5534 5535 5541 5539 5540 5543 5540 5537 5532 5528 5533 5534 5559 5563 5570 5578 5580 5581 5582 5584 5585 5586 5587 5588 5589 5588 5588 5588 5587 5587 5586 5585 5584 5582 5581 5581 5579 5580 5581 5581 5583 5585
5515 5521 5524 5528 5533 5533 5530 5527 5524 5517 5515 5522 5534 5527 5547 5552 5566 5572 5575 5575 5575 5577 5578 5580 5581 5580 5580 5580 5580 5580 5580 5580 5580 5579 5578 5577 5576 5574 5573 5573 5573 5573 5574 5576
5499 5505 5511 5515 5516 5518 5519 5513 5508 5509 5508 5521 5529 5523 5543 5556 5559 5564 5566 5567 5567 5568 5569 5571 5571 5572 5572 5573 5573 5573 5574 5573 5572 5572 5571 5571 5570 5569 5569 5567 5567 5567 5567 5568
5478 5485 5496 5500 5504 5506 5507 5509 5505 5504 5507 5509 5512 5517 5540 5548 5550 5553 5556 5557 5557 5558 5559 5562 5563 5564 5565 5565 5565 5565 5566 5566 5565 5564 5564 5564 5563 5563 5563 5562 5561 5561 5561 5562
5463 5471 5484 5489 5493 5494 5495 5494 5500 5491 5489 5491 5501 5509 5525 5538 5539 5541 5544 5546 5548 5549 5550 5553 5554 5555 5556 5556 5557 5557 5558 5557 5557 5557 5557 5556 5555 5554 5554 5554 5554 5554 5554 5554
5452 5453 5466 5473 5480 5482 5485 5484 5479 5481 5483 5489 5496 5501 5519 5529 5531 5533 5534 5536 5537 5538 5540 5543 5544 5546 5547 5548 5548 5548 5549 5549 5549 5548 5548 5548 5546 5546 5546 5546 5545 5545 5545 5544
5440 5439 5447 5455 5461 5467 5467 5471 5474 5471 5473 5477 5481 5501 5517 5522 5526 5525 5526 5527 5527 5528 5529 5531 5533 5535 5537 5538 5538 5539 5539 5539 5539 5539 5539 5538 5538 5537 5537 5537 5537 5537 5536 5536
5427 5425 5426 5439 5453 5457 5459 5461 5461 5464 5462 5459 5464 5489 5512 5510 5513 5513 5513 5515 5516 5516 5517 5519 5521 5523 5525 5527 5528 5529 5530 5530 5531 5530 5530 5529 5528 5528 5528 5528 5528 5528 5528 5527
5414 5413 5414 5426 5436 5438 5442 5445 5448 5452 5451 5446 5454 5480 5498 5496 5499 5501 5501 5502 5503 5504 5505 5507 5509 5511 5514 5516 5518 5519 5520 5521 5521 5521 5520 5520 5519 5519 5519 5519 5519 5519 5518 5518
5410 5402 5407 5416 5427 5426 5426 5433 5436 5437 5437 5440 5452 5471 5484 5484 5486 5488 5490 5491 5491 5492 5494 5496 5498 5500 5502 5505 5507 5509 5510 5511 5512 5512 5511 5511 5510 5511 5510 5510 5509 5509 5509 5508
5393 5390 5396 5406 5416 5418 5421 5426 5428 5429 5437 5440 5453 5460 5474 5474 5475 5477 5477 5479 5481 5483 5485 5488 5488 5489 5491 5494 5496 5498 5500 5501 5503 5502 5502 5502 5502 5501 5501 5500 5500 5499 5499 5498
5377 5377 5382 5390 5403 5407 5412 5420 5424 5428 5432 5435 5444 5453 5462 5462 5462 5464 5466 5468 5471 5473 5475 5477 5478 5479 5481 5484 5486 5488 5489 5491 5492 5493 5493 5492 5491 5491 5491 5491 5490 5490 5489 5488
5362 5365 5368 5375 5388 5391 5397 5412 5415 5417 5422 5427 5433 5445 5445 5446 5450 5453 5455 5457 5459 5461 5463 5465 5466 5468 5470 5472 5475 5476 5479 5480 5480 5481 5481 5482 5481 5481 5481 5481 5480 5479 5478 5477
5355 5355 5354 5360 5369 5372 5400 5407 5410 5412 5416 5417 5422 5427 5430 5434 5438 5441 5443 5444 5446 5449 5452 5453 5454 5456 5459 5461 5463 5465 5467 5467 5468 5468 5469 5470 5471 5471 5471 5470 5469 5468 5468 5466
5355 5352 5347 5351 5359 5375 5388 5392 5392 5396 5403 5406 5409 5413 5415 5417 5423 5426 5430 5432 5435 5437 5439 5441 5442 5444 5446 5449 5451 5453 5453 5454 5455 5456 5457 5458 5459 5460 5460 5459 5458 5458 5457 5456
5347 5345 5341 5342 5350 5362 5376 5380 5384 5389 5388 5392 5393 5397 5398 5404 5409 5418 5418 5420 5422 5425 5427 5429 5430 5432 5434 5436 5438 5440 5440 5441 5442 5444 5445 5446 5447 5448 5448 5448 5447 5447 5446 5444
5331 5329 5330 5334 5340 5350 5358 5363 5375 5372 5375 5376 5379 5383 5386 5390 5398 5402 5404 5407 5410 5412 5415 5417 5418 5420 5422 5424 5426 5427 5428 5429 5431 5432 5433 5434 5434 5435 5436 5436 5435 5435 5434 5432
5322 5320 5323 5327 5327 5339 5345 5350 5352 5354 5358 5362 5367 5372 5374 5377 5381 5385 5390 5394 5397 5399 5402 5404 5405 5407 5409 5411 5413 5414 5415 5416 5418 5419 5420 5421 5421 5422 5423 5422 5422 5422 5421 5420
5309 5312 5316 5322 5327 5329 5332 5335 5338 5341 5345 5350 5354 5358 5362 5364 5367 5371 5375 5379 5382 5385 5388 5390 5392 5393 5395 5396 5398 5400 5401 5403 5405 5405 5406 5407 5408 5408 5408 5409 5409 5409 5409 5408
5298 5302 5305 5309 5315 5318 5320 5323 5327 5331 5335 5339 5343 5347 5350 5351 5354 5358 5361 5365 5367 5370 5372 5375 5377 5378 5380 5381 5384 5386 5388 5390 5391 5392 5392 5393 5394 5394 5394 5394 5395 5396 5396 5395
5288 5291 5294 5299 5304 5309 5312 5313 5316 5320 5324 5327 5331 5334 5337 5339 5342 5345 5347 5350 5353 5355 5357 5360 5361 5363 5364 5366 5368 5371 5373 5375 5376 5377 5378 5379 5380 5380 5380 5380 5381 5382 5383 5384
5278 5280 5284 5290 5294 5296 5299 5302 5305 5308 5311 5315 5318 5321 5324 5327 5330 5333 5335 5337 5340 5341 5343 5345 5347 5348 5349 5351 5353 5356 5358 5361 5362 5363 5364 5364 5365 5366 5366 5366 5367 5368 5370 5372